Regional Weather Roundup
Issued by NWS

Home | Current Version | Previous Version | Text Only | Print | Product List | Glossary Off
Versions: 1 2 3 4 5 6 7 8 9 10 11 12 13 14 15 16 17 18 19 20 21 22 23 24 25 26 27 28 29 30 31 32 33 34 35 36 37 38 39 40 41 42 43 44 45 46 47 48 49 50

000
ASUS43 KFSD 222010
RWRSD

WEATHER ROUNDUP FOR SOUTH DAKOTA
NATIONAL WEATHER SERVICE SIOUX FALLS SD
300 PM CDT THU JUN 22 2017

NOTE: "FAIR" INDICATES FEW OR NO CLOUDS BELOW 12,000 FEET WITH NO
SIGNIFICANT WEATHER AND/OR OBSTRUCTIONS TO VISIBILITY.


SDZ001>005-009-010-012>017-222100-
NORTHWEST AND NORTH CENTRAL SOUTH DAKOTA

CITY           SKY/WX    TMP DP  RH WIND       PRES   REMARKS
BUFFALO          N/A     74  33  22 NW23G29   29.86F
FAITH            N/A     77  38  24 W13G24    29.88S
MOBRIDGE       MOSUNNY   80  41  24 W14       29.79F
$$

SDZ012>016-024>037-041>051-057-063-072>074-222100-
SOUTHWEST AND SOUTH CENTRAL SOUTH DAKOTA

CITY           SKY/WX    TMP DP  RH WIND       PRES   REMARKS
RAPID CTY ARPT SUNNY     74  41  30 NW14G23   29.94S
PIERRE         SUNNY     76  46  34 N8        29.83S
CUSTER         CLOUDY    64  40  41 VRB6      30.01S
ELLSWORTH AFB  SUNNY     73  41  30 N13G21    29.93
PHILIP         SUNNY     79  47  32 NW13G21   29.86F
PINE RIDGE     MOSUNNY   76  52  43 N10G22    29.92S
SPEARFISH      FAIR      68  43  40 NW8G17    29.98F
WINNER         CLOUDY    75  50  41 NE10G16   29.85F
$$

SDZ004>011-016>023-039-040-222100-
NORTHEAST SOUTH DAKOTA

CITY           SKY/WX    TMP DP  RH WIND       PRES   REMARKS
ABERDEEN       MOSUNNY   79  46  31 VRB6      29.79S
WATERTOWN      SUNNY     68  54  60 NW5       29.81S
BROOKINGS      CLOUDY    68  54  60 NE8       29.80S
SISSETON         N/A     79  46  31 W12       29.76R
$$

SDZ017-020-022-023-036>040-048>070-222100-
SOUTHEAST SOUTH DAKOTA

CITY           SKY/WX    TMP DP  RH WIND       PRES   REMARKS
SIOUX FALLS    CLOUDY    74  66  76 N8        29.76R
HURON          CLOUDY    71  54  54 NE9       29.81S
CHAMBERLAIN    PTSUNNY   75  51  42 N12       29.84S
MITCHELL       CLOUDY    74  60  61 N14       29.81R
YANKTON        MOSUNNY   82  63  52 NE14      29.72S
$$

ABBREVIATIONS USED IN REMARKS
   TC - TEMPERATURE IN CELSIUS
  WCI - WIND CHILL INDEX
   HX - HEAT INDEX
  VSB - VISIBILITY




USA.gov is the U.S. government's official web portal to all federal, state and local government web resources and services.